Terminal Aerodrome Forecast
Issued by NWS

Home | Current Version | Previous Version | Text Only | Print | Product List | Glossary Off
Versions: 1 2 3 4 5 6 7 8 9 10 11 12 13 14 15 16 17 18 19 20 21 22 23 24 25 26 27 28 29 30 31 32 33 34 35 36 37 38 39 40 41 42 43

000
FTUS43 KGRB 251700
TAFRHI
TAF
KRHI 251735Z 2518/2618 22008G16KT P6SM OVC009
     FM260000 00000KT 6SM BR SCT007 BKN012
     FM260400 11003KT 5SM BR OVC006=

USA.gov is the U.S. government's official web portal to all federal, state and local government web resources and services.